"Sample Date","Sample Time","Sample Value","Units","Flow Rate","Sample Interval","Number Channels","Micron Size 0","Counts/Channel 0","Micron Size 1","Counts/Channel 1","Micron Size 2","Counts/Channel 2","Micron Size 3","Counts/Channel 3","Micron Size 4","Counts/Channel 4","Micron Size 5","Counts/Channel 5","Micron Size 6","Counts/Channel 6","Micron Size 7","Counts/Channel 7","Micron Size 8","Counts/Channel 8","Micron Size 9","Counts/Channel 9","Micron Size 10","Counts/Channel 10","Micron Size 11","Counts/Channel 11","Micron Size 12","Counts/Channel 12","Micron Size 13","Counts/Channel 13","Micron Size 14","Counts/Channel 14","Micron Size 15","Counts/Channel 15","Micron Size 16","Counts/Channel 16","Micron Size 17","Counts/Channel 17","Micron Size 18","Counts/Channel 18","Micron Size 19","Counts/Channel 19","Micron Size 20","Counts/Channel 20","Micron Size 21","Counts/Channel 21","Micron Size 22","Counts/Channel 22","Micron Size 23","Counts/Channel 23","Micron Size 24","Counts/Channel 24","Micron Size 25","Counts/Channel 25","Micron Size 26","Counts/Channel 26","Micron Size 27","Counts/Channel 27","Micron Size 28","Counts/Channel 28","Micron Size 29","Counts/Channel 29","Micron Size 30","Counts/Channel 30","Micron Size 31","Counts/Channel 31"
"03/05/08","10:00:00",38011.000,"cc",28330.943,6.00,6,0.100,29306.000,0.200,6153.000,0.300,1097.000,0.500,1105.000,1.000,350.000,5.000,0
"03/05/08","10:00:06",38315.000,"cc",28325.084,6.00,6,0.100,29573.000,0.200,6175.000,0.300,1084.000,0.500,1132.000,1.000,351.000,5.000,0
"03/05/08","10:00:12",37929.000,"cc",28252.787,6.00,6,0.100,29434.000,0.200,6139.000,0.300,1029.000,0.500,988.000,1.000,339.000,5.000,0
"03/05/08","10:00:18",37881.000,"cc",28332.469,6.00,6,0.100,29466.000,0.200,6146.000,0.300,997.000,0.500,936.000,1.000,336.000,5.000,0
"03/05/08","10:00:24",39543.000,"cc",28355.662,6.00,6,0.100,30069.000,0.200,6635.000,0.300,1280.000,0.500,1152.000,1.000,407.000,5.000,0
"03/05/08","10:00:30",39547.000,"cc",28314.522,6.00,6,0.100,30127.000,0.200,6557.000,0.300,1200.000,0.500,1223.000,1.000,440.000,5.000,0
"03/05/08","10:00:36",38312.000,"cc",28293.076,6.00,6,0.100,29694.000,0.200,6213.000,0.300,1021.000,0.500,1026.000,1.000,358.000,5.000,0
"03/05/08","10:00:42",38467.000,"cc",28347.897,6.00,6,0.100,29612.000,0.200,6454.000,0.300,1002.000,0.500,1052.000,1.000,347.000,5.000,0
"03/05/08","10:00:48",39018.000,"cc",28278.160,6.00,6,0.100,29825.000,0.200,6561.000,0.300,1134.000,0.500,1149.000,1.000,349.000,5.000,0
"03/05/08","10:00:54",38963.000,"cc",28325.297,6.00,6,0.100,29937.000,0.200,6439.000,0.300,1103.000,0.500,1153.000,1.000,331.000,5.000,0
"03/05/08","10:01:00",38144.000,"cc",28280.879,6.00,6,0.100,29405.000,0.200,6074.000,0.300,1121.000,0.500,1170.000,1.000,374.000,5.000,0
"03/05/08","10:01:06",39061.000,"cc",28292.018,6.00,6,0.100,30169.000,0.200,6208.000,0.300,1101.000,0.500,1186.000,1.000,397.000,5.000,0
"03/05/08","10:01:12",43019.000,"cc",28394.481,6.00,6,0.100,32328.000,0.200,7065.000,0.300,1626.000,0.500,1572.000,1.000,428.000,5.000,0
"03/05/08","10:01:18",41201.000,"cc",28339.420,6.00,6,0.100,31512.000,0.200,6635.000,0.300,1367.000,0.500,1296.000,1.000,391.000,5.000,0
"03/05/08","10:01:24",38779.000,"cc",28319.662,6.00,6,0.100,29925.000,0.200,6149.000,0.300,1122.000,0.500,1208.000,1.000,375.000,5.000,0
"03/05/08","10:01:30",37656.000,"cc",28302.373,6.00,6,0.100,29129.000,0.200,6136.000,0.300,1009.000,0.500,1040.000,1.000,342.000,5.000,0
"03/05/08","10:01:36",37860.000,"cc",28316.475,6.00,6,0.100,29372.000,0.200,6180.000,0.300,967.000,0.500,1018.000,1.000,323.000,5.000,0
"03/05/08","10:01:42",38041.000,"cc",28287.529,6.00,6,0.100,29486.000,0.200,6172.000,0.300,960.000,0.500,1074.000,1.000,349.000,5.000,0
"03/05/08","10:01:48",38075.000,"cc",28289.063,6.00,6,0.100,29256.000,0.200,6337.000,0.300,1022.000,0.500,1116.000,1.000,344.000,5.000,0
"03/05/08","10:01:54",38367.000,"cc",28324.775,6.00,6,0.100,29687.000,0.200,6224.000,0.300,1039.000,0.500,1053.000,1.000,364.000,5.000,0
"03/05/08","10:02:00",38147.000,"cc",28341.205,6.00,6,0.100,29371.000,0.200,6400.000,0.300,963.000,0.500,1052.000,1.000,361.000,5.000,0
"03/05/08","10:02:06",37934.000,"cc",28359.449,6.00,6,0.100,29367.000,0.200,6428.000,0.300,930.000,0.500,921.000,1.000,288.000,5.000,0
"03/05/08","10:02:12",38081.000,"cc",28242.998,6.00,6,0.100,29413.000,0.200,6394.000,0.300,993.000,0.500,960.000,1.000,321.000,5.000,0
"03/05/08","10:02:18",38390.000,"cc",28326.385,6.00,6,0.100,29646.000,0.200,6451.000,0.300,976.000,0.500,986.000,1.000,331.000,5.000,0
"03/05/08","10:02:24",38316.000,"cc",28419.195,6.00,6,0.100,29464.000,0.200,6380.000,0.300,1081.000,0.500,1062.000,1.000,329.000,5.000,0
"03/05/08","10:02:30",37900.000,"cc",28165.924,6.00,6,0.100,29207.000,0.200,6323.000,0.300,1064.000,0.500,983.000,1.000,323.000,5.000,0
"03/05/08","10:02:36",37735.000,"cc",28283.766,6.00,6,0.100,28726.000,0.200,6605.000,0.300,1019.000,0.500,1027.000,1.000,358.000,5.000,0
"03/05/08","10:02:42",38065.000,"cc",28318.857,6.00,6,0.100,29064.000,0.200,6664.000,0.300,1005.000,0.500,1011.000,1.000,321.000,5.000,0
"03/05/08","10:02:48",37875.000,"cc",28293.695,6.00,6,0.100,29082.000,0.200,6452.000,0.300,997.000,0.500,1018.000,1.000,326.000,5.000,0
"03/05/08","10:02:54",38147.000,"cc",28325.898,6.00,6,0.100,29304.000,0.200,6418.000,0.300,1053.000,0.500,1043.000,1.000,329.000,5.000,0
"03/05/08","10:03:00",37762.000,"cc",28348.242,6.00,6,0.100,28844.000,0.200,6487.000,0.300,1056.000,0.500,1021.000,1.000,354.000,5.000,0
"03/05/08","10:03:06",37253.000,"cc",28354.109,6.00,6,0.100,28694.000,0.200,6249.000,0.300,1029.000,0.500,967.000,1.000,314.000,5.000,0
"03/05/08","10:03:12",37341.000,"cc",28351.883,6.00,6,0.100,28720.000,0.200,6346.000,0.300,991.000,0.500,974.000,1.000,310.000,5.000,0
"03/05/08","10:03:18",37633.000,"cc",28289.844,6.00,6,0.100,28946.000,0.200,6335.000,0.300,1018.000,0.500,1009.000,1.000,325.000,5.000,0
"03/05/08","10:03:24",37888.000,"cc",28304.080,6.00,6,0.100,28929.000,0.200,6445.000,0.300,1082.000,0.500,1091.000,1.000,341.000,5.000,0
"03/05/08","10:03:30",37500.000,"cc",28285.738,6.00,6,0.100,28982.000,0.200,6282.000,0.300,957.000,0.500,947.000,1.000,332.000,5.000,0
"03/05/08","10:03:36",37625.000,"cc",28344.656,6.00,6,0.100,28644.000,0.200,6468.000,0.300,1066.000,0.500,1102.000,1.000,345.000,5.000,0
"03/05/08","10:03:42",38101.000,"cc",28321.754,6.00,6,0.100,29066.000,0.200,6427.000,0.300,1173.000,0.500,1086.000,1.000,349.000,5.000,0
"03/05/08","10:03:48",37376.000,"cc",28313.897,6.00,6,0.100,28686.000,0.200,6462.000,0.300,955.000,0.500,953.000,1.000,319.000,5.000,1.000
"03/05/08","10:03:54",37098.000,"cc",28372.797,6.00,6,0.100,28602.000,0.200,6329.000,0.300,939.000,0.500,934.000,1.000,294.000,5.000,0
"03/05/08","10:04:00",38244.000,"cc",28348.182,6.00,6,0.100,29473.000,0.200,6492.000,0.300,963.000,0.500,1015.000,1.000,301.000,5.000,0
"03/05/08","10:04:06",37870.000,"cc",28284.830,6.00,6,0.100,29125.000,0.200,6415.000,0.300,1038.000,0.500,964.000,1.000,328.000,5.000,0
"03/05/08","10:04:12",37503.000,"cc",28338.561,6.00,6,0.100,28920.000,0.200,6361.000,0.300,971.000,0.500,932.000,1.000,319.000,5.000,0
"03/05/08","10:04:18",37511.000,"cc",28300.457,6.00,6,0.100,28897.000,0.200,6317.000,0.300,996.000,0.500,979.000,1.000,322.000,5.000,0
"03/05/08","10:04:24",37727.000,"cc",28247.949,6.00,6,0.100,29075.000,0.200,6427.000,0.300,968.000,0.500,947.000,1.000,310.000,5.000,0
"03/05/08","10:04:30",37913.000,"cc",28367.279,6.00,6,0.100,29163.000,0.200,6396.000,0.300,1003.000,0.500,999.000,1.000,352.000,5.000,0
"03/05/08","10:04:36",37851.000,"cc",28327.934,6.00,6,0.100,28847.000,0.200,6553.000,0.300,1042.000,0.500,1054.000,1.000,355.000,5.000,0
"03/05/08","10:04:42",38191.000,"cc",28266.377,6.00,6,0.100,29183.000,0.200,6529.000,0.300,1097.000,0.500,1039.000,1.000,343.000,5.000,0
"03/05/08","10:04:48",38094.000,"cc",28310.693,6.00,6,0.100,29054.000,0.200,6374.000,0.300,1157.000,0.500,1172.000,1.000,337.000,5.000,0
"03/05/08","10:04:54",38852.000,"cc",28265.772,6.00,6,0.100,29679.000,0.200,6479.000,0.300,1190.000,0.500,1130.000,1.000,374.000,5.000,0
"03/05/08","10:05:00",38409.000,"cc",28353.344,6.00,6,0.100,29311.000,0.200,6619.000,0.300,1098.000,0.500,1057.000,1.000,324.000,5.000,0
"03/05/08","10:05:06",38479.000,"cc",28370.242,6.00,6,0.100,29511.000,0.200,6385.000,0.300,1092.000,0.500,1141.000,1.000,350.000,5.000,0
"03/05/08","10:05:12",37942.000,"cc",28277.039,6.00,6,0.100,28984.000,0.200,6401.000,0.300,1060.000,0.500,1156.000,1.000,341.000,5.000,0
"03/05/08","10:05:18",37822.000,"cc",28305.766,6.00,6,0.100,29021.000,0.200,6343.000,0.300,1087.000,0.500,1018.000,1.000,353.000,5.000,0
"03/05/08","10:05:24",38144.000,"cc",28271.041,6.00,6,0.100,29139.000,0.200,6612.000,0.300,1041.000,0.500,1037.000,1.000,315.000,5.000,0
"03/05/08","10:05:30",38264.000,"cc",28289.148,6.00,6,0.100,29032.000,0.200,6664.000,0.300,1082.000,0.500,1109.000,1.000,377.000,5.000,0
"03/05/08","10:05:36",38136.000,"cc",28325.375,6.00,6,0.100,29364.000,0.200,6335.000,0.300,1049.000,0.500,1051.000,1.000,337.000,5.000,0
"03/05/08","10:05:42",38222.000,"cc",28413.027,6.00,6,0.100,29148.000,0.200,6446.000,0.300,1072.000,0.500,1174.000,1.000,382.000,5.000,0
"03/05/08","10:05:48",38493.000,"cc",28320.811,6.00,6,0.100,29258.000,0.200,6557.000,0.300,1181.000,0.500,1119.000,1.000,378.000,5.000,0
"03/05/08","10:05:54",38445.000,"cc",28284.725,6.00,6,0.100,29314.000,0.200,6496.000,0.300,1162.000,0.500,1094.000,1.000,379.000,5.000,0
"03/05/08","10:06:00",38429.000,"cc",28373.992,6.00,6,0.100,29365.000,0.200,6476.000,0.300,1075.000,0.500,1122.000,1.000,391.000,5.000,0
"03/05/08","10:06:06",38514.000,"cc",28298.129,6.00,6,0.100,29414.000,0.200,6443.000,0.300,1126.000,0.500,1158.000,1.000,373.000,5.000,0
"03/05/08","10:06:12",38735.000,"cc",28341.918,6.00,6,0.100,29552.000,0.200,6582.000,0.300,1146.000,0.500,1122.000,1.000,333.000,5.000,0
"03/05/08","10:06:18",37522.000,"cc",28295.336,6.00,6,0.100,28999.000,0.200,6253.000,0.300,981.000,0.500,974.000,1.000,315.000,5.000,0
"03/05/08","10:06:24",38393.000,"cc",28348.443,6.00,6,0.100,29545.000,0.200,6391.000,0.300,1007.000,0.500,1104.000,1.000,346.000,5.000,0
"03/05/08","10:06:30",38323.000,"cc",28316.783,6.00,6,0.100,29492.000,0.200,6336.000,0.300,1059.000,0.500,1083.000,1.000,353.000,5.000,0
"03/05/08","10:06:36",38653.000,"cc",28325.857,6.00,6,0.100,29511.000,0.200,6532.000,0.300,1087.000,0.500,1117.000,1.000,406.000,5.000,0
"03/05/08","10:06:42",38175.000,"cc",28307.611,6.00,6,0.100,29215.000,0.200,6413.000,0.300,1123.000,0.500,1083.000,1.000,341.000,5.000,0
"03/05/08","10:06:48",38168.000,"cc",28255.244,6.00,6,0.100,29333.000,0.200,6453.000,0.300,1051.000,0.500,993.000,1.000,338.000,5.000,0
"03/05/08","10:06:54",38478.000,"cc",28291.951,6.00,6,0.100,29508.000,0.200,6506.000,0.300,1099.000,0.500,1031.000,1.000,334.000,5.000,0
"03/05/08","10:07:00",37889.000,"cc",28347.947,6.00,6,0.100,28991.000,0.200,6599.000,0.300,993.000,0.500,985.000,1.000,321.000,5.000,0
"03/05/08","10:07:06",38346.000,"cc",28367.998,6.00,6,0.100,29286.000,0.200,6627.000,0.300,1030.000,0.500,1074.000,1.000,329.000,5.000,0
"03/05/08","10:07:12",37817.000,"cc",28265.863,6.00,6,0.100,29150.000,0.200,6466.000,0.300,966.000,0.500,924.000,1.000,311.000,5.000,0
"03/05/08","10:07:18",38024.000,"cc",28308.373,6.00,6,0.100,29119.000,0.200,6599.000,0.300,1004.000,0.500,1003.000,1.000,299.000,5.000,0
"03/05/08","10:07:24",38250.000,"cc",28279.145,6.00,6,0.100,29179.000,0.200,6590.000,0.300,1103.000,0.500,1043.000,1.000,335.000,5.000,0
"03/05/08","10:07:30",39716.000,"cc",28392.545,6.00,6,0.100,29804.000,0.200,6931.000,0.300,1348.000,0.500,1232.000,1.000,401.000,5.000,0
"03/05/08","10:07:36",39271.000,"cc",28304.004,6.00,6,0.100,29746.000,0.200,6779.000,0.300,1238.000,0.500,1135.000,1.000,373.000,5.000,0
"03/05/08","10:07:42",38682.000,"cc",28329.440,6.00,6,0.100,29503.000,0.200,6641.000,0.300,1094.000,0.500,1084.000,1.000,360.000,5.000,0
"03/05/08","10:07:48",38613.000,"cc",28253.104,6.00,6,0.100,29295.000,0.200,6626.000,0.300,1145.000,0.500,1192.000,1.000,355.000,5.000,0
"03/05/08","10:07:54",38290.000,"cc",28384.938,6.00,6,0.100,29243.000,0.200,6510.000,0.300,1063.000,0.500,1100.000,1.000,374.000,5.000,0
"03/05/08","10:08:00",37589.000,"cc",28350.479,6.00,6,0.100,28718.000,0.200,6557.000,0.300,970.000,0.500,1006.000,1.000,338.000,5.000,0
"03/05/08","10:08:06",37329.000,"cc",28264.320,6.00,6,0.100,28522.000,0.200,6496.000,0.300,1015.000,0.500,992.000,1.000,304.000,5.000,0
"03/05/08","10:08:12",37449.000,"cc",28291.123,6.00,6,0.100,28421.000,0.200,6598.000,0.300,1030.000,0.500,1063.000,1.000,337.000,5.000,0
"03/05/08","10:08:18",37492.000,"cc",28325.379,6.00,6,0.100,28386.000,0.200,6577.000,0.300,1080.000,0.500,1080.000,1.000,369.000,5.000,0
"03/05/08","10:08:24",38013.000,"cc",28360.717,6.00,6,0.100,28881.000,0.200,6569.000,0.300,1073.000,0.500,1120.000,1.000,370.000,5.000,0
"03/05/08","10:08:30",38084.000,"cc",28312.547,6.00,6,0.100,28900.000,0.200,6641.000,0.300,1051.000,0.500,1142.000,1.000,350.000,5.000,0
"03/05/08","10:08:36",37583.000,"cc",28356.635,6.00,6,0.100,28712.000,0.200,6386.000,0.300,1065.000,0.500,1077.000,1.000,343.000,5.000,0
"03/05/08","10:08:42",37389.000,"cc",28308.123,6.00,6,0.100,28334.000,0.200,6617.000,0.300,1062.000,0.500,1060.000,1.000,316.000,5.000,0
"03/05/08","10:08:48",36882.000,"cc",28305.756,6.00,6,0.100,27813.000,0.200,6623.000,0.300,1043.000,0.500,1074.000,1.000,329.000,5.000,0
"03/05/08","10:08:54",37200.000,"cc",28326.518,6.00,6,0.100,28235.000,0.200,6563.000,0.300,1048.000,0.500,1037.000,1.000,317.000,5.000,0
"03/05/08","10:09:00",37508.000,"cc",28382.783,6.00,6,0.100,28140.000,0.200,6759.000,0.300,1060.000,0.500,1161.000,1.000,388.000,5.000,0
"03/05/08","10:09:06",37168.000,"cc",28240.516,6.00,6,0.100,28089.000,0.200,6621.000,0.300,1046.000,0.500,1085.000,1.000,327.000,5.000,0
"03/05/08","10:09:12",37731.000,"cc",28249.490,6.00,6,0.100,28396.000,0.200,6803.000,0.300,1051.000,0.500,1127.000,1.000,354.000,5.000,0
"03/05/08","10:09:18",37520.000,"cc",28353.201,6.00,6,0.100,28254.000,0.200,6613.000,0.300,1134.000,0.500,1150.000,1.000,369.000,5.000,0
"03/05/08","10:09:24",37802.000,"cc",28357.758,6.00,6,0.100,28540.000,0.200,6647.000,0.300,1122.000,0.500,1121.000,1.000,372.000,5.000,0
"03/05/08","10:09:30",38139.000,"cc",28330.781,6.00,6,0.100,28707.000,0.200,6929.000,0.300,1028.000,0.500,1110.000,1.000,365.000,5.000,0
"03/05/08","10:09:36",37968.000,"cc",28283.936,6.00,6,0.100,28665.000,0.200,6741.000,0.300,1103.000,0.500,1114.000,1.000,345.000,5.000,0
"03/05/08","10:09:42",38510.000,"cc",28274.033,6.00,6,0.100,29126.000,0.200,6771.000,0.300,1109.000,0.500,1120.000,1.000,384.000,5.000,0
"03/05/08","10:09:48",38575.000,"cc",28352.078,6.00,6,0.100,29291.000,0.200,6718.000,0.300,1127.000,0.500,1095.000,1.000,344.000,5.000,0
"03/05/08","10:09:54",38827.000,"cc",28312.684,6.00,6,0.100,29478.000,0.200,6776.000,0.300,1077.000,0.500,1148.000,1.000,348.000,5.000,0
"03/05/08","10:10:00",39164.000,"cc",28329.363,6.00,6,0.100,29666.000,0.200,6839.000,0.300,1108.000,0.500,1192.000,1.000,359.000,5.000,0
"03/05/08","10:10:06",38431.000,"cc",28333.990,6.00,6,0.100,29212.000,0.200,6682.000,0.300,1077.000,0.500,1079.000,1.000,381.000,5.000,0
"03/05/08","10:10:12",38313.000,"cc",28304.217,6.00,6,0.100,29067.000,0.200,6742.000,0.300,1095.000,0.500,1088.000,1.000,321.000,5.000,0
"03/05/08","10:10:18",38781.000,"cc",28270.738,6.00,6,0.100,29325.000,0.200,6773.000,0.300,1154.000,0.500,1153.000,1.000,376.000,5.000,0
"03/05/08","10:10:24",38211.000,"cc",28387.363,6.00,6,0.100,28945.000,0.200,6731.000,0.300,1092.000,0.500,1116.000,1.000,327.000,5.000,0
"03/05/08","10:10:30",38019.000,"cc",28214.881,6.00,6,0.100,28966.000,0.200,6570.000,0.300,1067.000,0.500,1073.000,1.000,343.000,5.000,0
"03/05/08","10:10:36",38026.000,"cc",28299.840,6.00,6,0.100,28847.000,0.200,6672.000,0.300,1066.000,0.500,1101.000,1.000,340.000,5.000,0
"03/05/08","10:10:42",37908.000,"cc",28266.559,6.00,6,0.100,28909.000,0.200,6456.000,0.300,1089.000,0.500,1122.000,1.000,332.000,5.000,0
"03/05/08","10:10:48",37284.000,"cc",28356.744,6.00,6,0.100,27971.000,0.200,6649.000,0.300,1145.000,0.500,1163.000,1.000,356.000,5.000,0
"03/05/08","10:10:54",36384.000,"cc",28344.252,6.00,6,0.100,27381.000,0.200,6517.000,0.300,1047.000,0.500,1118.000,1.000,321.000,5.000,0
"03/05/08","10:11:00",35547.000,"cc",28299.441,6.00,6,0.100,26886.000,0.200,6188.000,0.300,1050.000,0.500,1083.000,1.000,340.000,5.000,0
"03/05/08","10:11:06",35098.000,"cc",28311.244,6.00,6,0.100,26775.000,0.200,6039.000,0.300,1036.000,0.500,960.000,1.000,288.000,5.000,0
"03/05/08","10:11:12",34117.000,"cc",28329.449,6.00,6,0.100,25912.000,0.200,6009.000,0.300,981.000,0.500,932.000,1.000,283.000,5.000,0
"03/05/08","10:11:18",34350.000,"cc",28268.973,6.00,6,0.100,25966.000,0.200,6047.000,0.300,1013.000,0.500,996.000,1.000,328.000,5.000,0
"03/05/08","10:11:24",34136.000,"cc",28373.432,6.00,6,0.100,25929.000,0.200,6061.000,0.300,939.000,0.500,935.000,1.000,272.000,5.000,0
"03/05/08","10:11:30",33704.000,"cc",28240.359,6.00,6,0.100,25642.000,0.200,5979.000,0.300,906.000,0.500,896.000,1.000,281.000,5.000,0
"03/05/08","10:11:36",33734.000,"cc",28331.660,6.00,6,0.100,25442.000,0.200,6130.000,0.300,928.000,0.500,962.000,1.000,272.000,5.000,0
"03/05/08","10:11:42",34079.000,"cc",28356.924,6.00,6,0.100,25871.000,0.200,5901.000,0.300,981.000,0.500,1043.000,1.000,283.000,5.000,0
"03/05/08","10:11:48",34495.000,"cc",28229.184,6.00,6,0.100,26112.000,0.200,6044.000,0.300,1036.000,0.500,997.000,1.000,306.000,5.000,0
"03/05/08","10:11:54",33857.000,"cc",28296.295,6.00,6,0.100,25770.000,0.200,5969.000,0.300,925.000,0.500,929.000,1.000,264.000,5.000,0
"03/05/08","10:12:00",33957.000,"cc",28350.885,6.00,6,0.100,25525.000,0.200,6093.000,0.300,1023.000,0.500,993.000,1.000,323.000,5.000,0
"03/05/08","10:12:06",33649.000,"cc",28332.734,6.00,6,0.100,25586.000,0.200,5865.000,0.300,950.000,0.500,958.000,1.000,290.000,5.000,0
"03/05/08","10:12:12",33412.000,"cc",28274.008,6.00,6,0.100,25288.000,0.200,5982.000,0.300,958.000,0.500,906.000,1.000,278.000,5.000,0
"03/05/08","10:12:18",33726.000,"cc",28290.291,6.00,6,0.100,25605.000,0.200,5944.000,0.300,974.000,0.500,947.000,1.000,256.000,5.000,0
"03/05/08","10:12:24",33596.000,"cc",28316.246,6.00,6,0.100,25455.000,0.200,6004.000,0.300,952.000,0.500,892.000,1.000,293.000,5.000,0
"03/05/08","10:12:30",33925.000,"cc",28267.289,6.00,6,0.100,25598.000,0.200,6096.000,0.300,1001.000,0.500,941.000,1.000,289.000,5.000,0
"03/05/08","10:12:36",33453.000,"cc",28332.123,6.00,6,0.100,25295.000,0.200,5976.000,0.300,937.000,0.500,943.000,1.000,302.000,5.000,0
"03/05/08","10:12:42",34062.000,"cc",28351.502,6.00,6,0.100,25879.000,0.200,6023.000,0.300,958.000,0.500,931.000,1.000,271.000,5.000,0
"03/05/08","10:12:48",33674.000,"cc",28305.973,6.00,6,0.100,25700.000,0.200,5850.000,0.300,927.000,0.500,939.000,1.000,258.000,5.000,0
"03/05/08","10:12:54",34775.000,"cc",28395.221,6.00,6,0.100,26182.000,0.200,6269.000,0.300,1043.000,0.500,980.000,1.000,301.000,5.000,0
"03/05/08","10:13:00",33691.000,"cc",28276.785,6.00,6,0.100,25328.000,0.200,6177.000,0.300,979.000,0.500,915.000,1.000,292.000,5.000,0
"03/05/08","10:13:06",33878.000,"cc",28303.768,6.00,6,0.100,25717.000,0.200,6024.000,0.300,980.000,0.500,885.000,1.000,272.000,5.000,0
"03/05/08","10:13:12",33727.000,"cc",28356.719,6.00,6,0.100,25318.000,0.200,6121.000,0.300,962.000,0.500,1003.000,1.000,323.000,5.000,0
"03/05/08","10:13:18",33391.000,"cc",28306.621,6.00,6,0.100,25271.000,0.200,5915.000,0.300,970.000,0.500,933.000,1.000,302.000,5.000,0
"03/05/08","10:13:24",33875.000,"cc",28317.781,6.00,6,0.100,25614.000,0.200,5866.000,0.300,1078.000,0.500,996.000,1.000,321.000,5.000,0
"03/05/08","10:13:30",33617.000,"cc",28339.555,6.00,6,0.100,25311.000,0.200,6109.000,0.300,931.000,0.500,965.000,1.000,301.000,5.000,0
"03/05/08","10:13:36",33813.000,"cc",28251.992,6.00,6,0.100,25801.000,0.200,5943.000,0.300,957.000,0.500,856.000,1.000,256.000,5.000,0
"03/05/08","10:13:42",33739.000,"cc",28280.850,6.00,6,0.100,25385.000,0.200,5980.000,0.300,1034.000,0.500,1021.000,1.000,319.000,5.000,0
"03/05/08","10:13:48",34072.000,"cc",28362.430,6.00,6,0.100,25486.000,0.200,6324.000,0.300,1018.000,0.500,969.000,1.000,275.000,5.000,0
"03/05/08","10:13:54",33695.000,"cc",28265.602,6.00,6,0.100,25495.000,0.200,6042.000,0.300,955.000,0.500,919.000,1.000,284.000,5.000,0
"03/05/08","10:14:00",33491.000,"cc",28394.584,6.00,6,0.100,25183.000,0.200,6061.000,0.300,996.000,0.500,948.000,1.000,303.000,5.000,0
"03/05/08","10:14:06",33455.000,"cc",28314.801,6.00,6,0.100,24994.000,0.200,6092.000,0.300,1035.000,0.500,1021.000,1.000,313.000,5.000,0
"03/05/08","10:14:12",33918.000,"cc",28319.889,6.00,6,0.100,25402.000,0.200,6130.000,0.300,1033.000,0.500,1041.000,1.000,312.000,5.000,0
"03/05/08","10:14:18",33647.000,"cc",28343.383,6.00,6,0.100,25175.000,0.200,6095.000,0.300,988.000,0.500,1078.000,1.000,311.000,5.000,0
"03/05/08","10:14:24",33596.000,"cc",28308.125,6.00,6,0.100,25098.000,0.200,6084.000,0.300,1039.000,0.500,1036.000,1.000,339.000,5.000,0
"03/05/08","10:14:30",32072.000,"cc",28286.432,6.00,6,0.100,23943.000,0.200,5801.000,0.300,1024.000,0.500,1003.000,1.000,301.000,5.000,0
"03/05/08","10:14:36",30736.000,"cc",28386.563,6.00,6,0.100,23002.000,0.200,5491.000,0.300,986.000,0.500,973.000,1.000,284.000,5.000,0
"03/05/08","10:14:42",30244.000,"cc",28298.219,6.00,6,0.100,22662.000,0.200,5373.000,0.300,960.000,0.500,989.000,1.000,260.000,5.000,0
"03/05/08","10:14:48",30038.000,"cc",28239.516,6.00,6,0.100,22389.000,0.200,5438.000,0.300,1036.000,0.500,892.000,1.000,283.000,5.000,0
"03/05/08","10:14:54",29575.000,"cc",28338.330,6.00,6,0.100,22058.000,0.200,5263.000,0.300,965.000,0.500,975.000,1.000,314.000,5.000,0
"03/05/08","10:15:00",29551.000,"cc",28434.287,6.00,6,0.100,21779.000,0.200,5369.000,0.300,1094.000,0.500,1015.000,1.000,294.000,5.000,0
"03/05/08","10:15:06",29702.000,"cc",28287.113,6.00,6,0.100,21954.000,0.200,5344.000,0.300,1069.000,0.500,1001.000,1.000,334.000,5.000,0
"03/05/08","10:15:12",29586.000,"cc",28379.986,6.00,6,0.100,22175.000,0.200,5197.000,0.300,965.000,0.500,958.000,1.000,291.000,5.000,0
"03/05/08","10:15:18",29165.000,"cc",28262.320,6.00,6,0.100,21692.000,0.200,5409.000,0.300,899.000,0.500,872.000,1.000,293.000,5.000,0
"03/05/08","10:15:24",28554.000,"cc",28260.525,6.00,6,0.100,21378.000,0.200,5113.000,0.300,923.000,0.500,878.000,1.000,262.000,5.000,0
"03/05/08","10:15:30",28282.000,"cc",28441.664,6.00,6,0.100,20996.000,0.200,5101.000,0.300,965.000,0.500,905.000,1.000,315.000,5.000,0
"03/05/08","10:15:36",27667.000,"cc",28246.902,6.00,6,0.100,20631.000,0.200,4981.000,0.300,921.000,0.500,890.000,1.000,244.000,5.000,0
"03/05/08","10:15:42",27264.000,"cc",28271.000,6.00,6,0.100,20513.000,0.200,4819.000,0.300,898.000,0.500,782.000,1.000,252.000,5.000,0
"03/05/08","10:15:48",27523.000,"cc",28377.393,6.00,6,0.100,20561.000,0.200,4911.000,0.300,963.000,0.500,817.000,1.000,271.000,5.000,0
"03/05/08","10:15:54",27894.000,"cc",28271.508,6.00,6,0.100,20767.000,0.200,5134.000,0.300,930.000,0.500,854.000,1.000,209.000,5.000,0
"03/05/08","10:16:00",28024.000,"cc",28291.365,6.00,6,0.100,20834.000,0.200,5179.000,0.300,869.000,0.500,891.000,1.000,251.000,5.000,0
"03/05/08","10:16:06",28068.000,"cc",28275.254,6.00,6,0.100,21144.000,0.200,4939.000,0.300,875.000,0.500,860.000,1.000,250.000,5.000,0
"03/05/08","10:16:12",28559.000,"cc",28286.434,6.00,6,0.100,21378.000,0.200,5173.000,0.300,900.000,0.500,866.000,1.000,242.000,5.000,0
"03/05/08","10:16:18",28522.000,"cc",28358.719,6.00,6,0.100,21340.000,0.200,5134.000,0.300,924.000,0.500,840.000,1.000,284.000,5.000,0
"03/05/08","10:16:24",27273.000,"cc",28359.662,6.00,6,0.100,20306.000,0.200,4877.000,0.300,951.000,0.500,882.000,1.000,257.000,5.000,0